Vertical_Velocity
-5 3 2 -1 -4 -2 10 8 13 2 1 2 3 2 0 4 -4 -9 2 -6 -1 -6 -8 0 -1 -1 -3 -6 3 3 1 -0 6 8 1 0 -1 1 2 -0 3 -0 0
10 3 1 3 -1 7 18 5 -2 -0 -4 2 -2 -2 -0 2 -2 1 -1 0 0 2 -4 -5 3 -2 -1 2 -4 -2 4 2 4 -2 4 2 2 -4 1 -2 0 -1 -1
3 2 -7 -3 -0 5 8 6 1 7 3 1 1 -7 -3 2 -0 0 -0 5 -3 -1 -6 -1 -1 2 -2 2 -2 -0 -1 -1 -2 -1 -2 2 5 1 -4 -2 -1 -1 0
2 -3 -0 1 5 1 8 -9 9 8 10 3 1 3 -1 -2 -2 1 -2 4 -5 -1 -2 -0 -1 3 3 -1 0 2 -0 -6 -4 -7 -2 -1 3 2 2 -2 -0 2 -1
7 -4 -11 0 -6 6 2 16 6 6 8 2 -2 -4 0 -4 -3 -1 -2 2 -2 -1 -2 -3 2 1 2 -3 -3 -0 -0 3 2 1 -0 -2 3 -2 -1 1 2 4 1
0 -3 -7 0 -3 -2 3 5 -2 5 6 -3 2 -5 -1 -2 1 0 2 2 -0 -1 4 -1 2 -3 2 -2 -3 -1 2 -3 2 -0 -0 2 2 -6 -6 3 0 1 4
1 -6 -14 -9 -18 11 6 -5 -4 16 5 6 1 -3 -2 2 2 1 1 -4 -1 0 -1 -2 2 2 -3 -1 -1 -3 -3 -1 2 4 -1 3 1 -4 0 0 -0 2 4
10 3 -2 -4 -6 1 -3 12 3 13 1 -0 -1 -3 2 1 4 4 -1 1 -5 0 -1 -2 -0 -6 1 4 -2 1 -3 -1 2 1 0 -2 4 3 -0 -0 -2 0 3
5 5 4 0 -12 5 4 0 -4 8 -3 -3 -5 5 0 1 5 2 -3 -4 -2 -1 -1 -2 -1 -1 1 1 3 1 -4 1 1 -0 3 0 1 4 3 -3 0 2 1
-0 6 4 -10 -14 9 9 13 -6 8 -6 -0 0 1 3 1 3 1 0 -2 -8 -6 2 2 1 3 2 -2 -1 -1 1 5 4 -1 1 4 -0 1 -0 3 3 -1 -1
6 3 11 1 -1 6 -4 2 0 12 -4 4 16 2 6 6 15 6 -2 -8 -0 -1 5 1 2 5 1 -2 6 -3 9 0 -6 1 0 2 1 -1 -1 2 2 -4 -2
7 3 6 -17 -9 -2 -1 -2 -7 9 3 4 5 -3 20 8 1 -1 -1 -1 1 -1 5 6 3 3 -2 1 2 5 -1 1 -2 3 4 2 -1 -2 4 2 -3 -3 -2
4 1 3 4 -2 5 2 -2 3 2 11 5 20 -18 -7 -2 2 1 1 -1 -2 -2 1 7 2 -2 -1 -3 -8 4 -0 -2 -0 5 6 2 -4 -1 7 -1 -3 -2 2
7 11 8 11 4 3 19 20 21 -4 13 -2 -16 0 10 -4 0 -4 -2 -6 -1 -6 -2 -2 4 0 4 -4 -10 -5 0 0 5 0 6 -4 1 6 -1 -1 4 0 -1
-1 6 7 3 1 -9 -19 -14 -14 -5 1 -11 -7 -1 -4 -14 2 5 4 -3 2 8 8 5 4 -2 -5 -1 0 3 -1 5 3 5 -1 -1 4 3 -2 1 2 -0 -3
12 1 12 28 -25 -9 1 -12 8 -11 -18 -16 -6 -1 -4 -5 8 -8 6 -6 1 -1 3 -0 -2 -6 7 1 11 2 2 3 1 1 -1 6 1 1 2 -1 -0 -2 -3
10 9 -2 -0 0 1 -15 -17 -12 -8 -10 -4 3 -7 3 23 1 -2 12 0 1 -1 -5 -10 -9 -0 1 5 -1 1 4 4 2 -1 2 3 1 1 4 -1 -3 -1 -2
1 10 5 12 1 1 -11 -8 1 9 4 -2 -2 -3 8 11 -3 -0 11 -3 -17 -4 -7 -7 -6 2 6 -2 11 1 4 -4 5 0 3 1 3 2 2 -1 -4 -0 -2
1 6 7 1 0 4 -9 -1 10 13 4 -5 -4 9 6 -1 -0 3 -1 -10 -1 6 1 -4 3 -9 7 7 1 -2 5 -6 3 4 2 6 1 3 1 -3 -3 1 -2
-1 4 -2 -2 -5 -4 -13 -6 -8 -7 2 11 4 -2 2 1 -4 -0 6 6 2 -2 -3 -0 3 -2 1 1 -4 6 6 -1 1 6 6 7 2 1 -2 -2 -1 -1 2
3 0 3 3 0 0 5 5 5 4 4 14 8 1 3 7 1 2 -6 -9 12 -0 2 8 4 1 -3 -3 -0 -0 -1 2 5 12 8 2 -1 -1 -0 -2 3 -1 0
-3 -3 -1 5 2 4 5 7 7 -3 2 -1 -3 0 4 4 -3 -3 4 7 9 17 11 5 0 3 5 5 6 2 5 4 7 5 5 2 -2 -1 -2 1 -0 -2 -0
2 5 3 3 1 5 6 4 6 -2 -2 -9 -3 2 4 3 6 5 4 8 19 15 12 3 2 -5 6 -4 3 5 8 8 9 3 -0 1 0 0 -0 -0 -0 -2 2
-0 -1 5 6 5 6 4 2 3 -1 -1 -0 -4 2 -2 -5 3 6 10 12 7 4 5 -4 1 0 -2 -2 0 1 1 3 2 -2 -2 -2 -1 -1 -3 -2 -2 1 1
4 3 2 1 3 6 5 1 2 2 0 -0 1 -2 -0 0 -3 6 8 7 8 10 8 4 -1 2 0 -2 1 3 4 3 1 1 -3 -2 -2 -0 -1 -1 -1 -1 -1
-4 -1 1 1 3 2 3 1 -3 1 3 -1 5 -1 1 2 1 3 6 9 10 6 7 4 6 5 3 3 4 0 -0 -0 1 1 3 -3 0 -2 -2 -0 -1 -2 -2
Height
5498 5515 5533 5552 5570 5585 5600 5612 5622 5629 5641 5652 5663 5673 5683 5695 5705 5715 5725 5732 5739 5747 5753 5761 5766 5774 5777 5781 5784 5786 5790 5794 5798 5802 5805 5806 5808 5812 5815 5815 5816 5815 5813
5484 5502 5515 5535 5557 5568 5584 5598 5609 5617 5627 5638 5649 5662 5672 5684 5696 5706 5716 5724 5730 5740 5746 5752 5759 5763 5768 5772 5774 5776 5780 5784 5788 5792 5794 5797 5799 5802 5806 5806 5806 5806 5804
5468 5485 5503 5519 5538 5553 5570 5582 5593 5604 5614 5623 5635 5648 5662 5674 5685 5695 5705 5713 5722 5730 5736 5742 5749 5750 5758 5762 5766 5770 5774 5778 5780 5783 5786 5788 5790 5791 5793 5796 5797 5796 5796
5453 5471 5490 5505 5521 5539 5555 5567 5579 5592 5601 5612 5623 5635 5648 5661 5672 5681 5692 5702 5711 5720 5727 5732 5737 5742 5749 5753 5758 5762 5764 5768 5772 5775 5778 5779 5781 5783 5785 5786 5787 5788 5787
5441 5459 5473 5492 5508 5524 5540 5552 5567 5581 5591 5601 5611 5622 5634 5646 5659 5669 5680 5690 5700 5707 5716 5721 5727 5733 5739 5743 5747 5752 5756 5758 5760 5765 5769 5771 5772 5774 5776 5778 5779 5779 5778
5433 5448 5462 5479 5495 5511 5524 5541 5555 5567 5579 5589 5600 5609 5622 5636 5647 5656 5667 5677 5688 5696 5705 5710 5718 5723 5728 5732 5736 5742 5747 5750 5751 5755 5759 5762 5763 5765 5768 5769 5770 5769 5769
5424 5438 5454 5469 5483 5500 5516 5529 5541 5553 5564 5572 5586 5598 5610 5623 5634 5646 5655 5666 5675 5684 5693 5700 5708 5713 5717 5721 5725 5732 5736 5740 5743 5746 5750 5752 5755 5759 5761 5761 5760 5759 5759
5418 5433 5443 5455 5472 5490 5504 5517 5529 5540 5552 5564 5576 5585 5597 5609 5622 5633 5643 5653 5663 5673 5681 5690 5696 5702 5705 5709 5715 5721 5725 5729 5733 5736 5740 5742 5745 5748 5751 5751 5750 5749 5748
5408 5420 5430 5443 5458 5479 5492 5504 5516 5527 5539 5551 5564 5571 5585 5597 5608 5619 5630 5641 5651 5661 5669 5678 5685 5690 5695 5701 5704 5709 5714 5718 5722 5727 5732 5736 5737 5737 5739 5740 5740 5741 5739
5396 5408 5421 5432 5452 5468 5478 5491 5502 5516 5527 5538 5549 5561 5573 5584 5595 5606 5617 5629 5641 5649 5656 5665 5673 5680 5684 5688 5692 5696 5702 5708 5713 5718 5722 5723 5725 5727 5730 5730 5730 5730 5731
5389 5399 5411 5422 5443 5456 5467 5479 5491 5503 5513 5524 5538 5549 5559 5571 5582 5593 5604 5616 5629 5636 5645 5654 5663 5668 5673 5677 5681 5687 5692 5696 5701 5706 5709 5711 5715 5719 5719 5719 5720 5721 5720
5375 5385 5395 5411 5430 5446 5455 5465 5478 5489 5501 5511 5523 5537 5545 5557 5571 5581 5592 5605 5615 5625 5633 5640 5647 5654 5659 5664 5669 5673 5679 5683 5688 5692 5697 5702 5706 5708 5708 5710 5711 5712 5711
5366 5379 5394 5409 5421 5434 5444 5453 5467 5477 5488 5499 5510 5525 5534 5548 5559 5570 5580 5591 5602 5612 5620 5627 5632 5639 5645 5651 5657 5661 5665 5670 5676 5681 5687 5691 5693 5696 5700 5701 5701 5703 5703
5355 5367 5380 5393 5406 5419 5430 5438 5447 5462 5473 5486 5501 5512 5522 5534 5547 5558 5567 5577 5587 5596 5604 5612 5619 5624 5630 5638 5644 5649 5654 5659 5666 5672 5676 5679 5684 5688 5689 5691 5693 5695 5696
5343 5354 5368 5381 5392 5403 5413 5426 5440 5454 5464 5478 5490 5499 5512 5523 5538 5546 5555 5563 5573 5583 5591 5596 5604 5611 5620 5627 5634 5639 5644 5650 5656 5662 5665 5669 5672 5676 5680 5683 5684 5686 5687
5329 5340 5353 5363 5378 5392 5405 5419 5427 5438 5452 5464 5474 5489 5501 5512 5522 5532 5542 5550 5558 5567 5576 5583 5592 5601 5609 5616 5622 5629 5634 5642 5645 5650 5654 5659 5663 5668 5672 5674 5676 5677 5679
5313 5323 5339 5354 5368 5379 5393 5407 5416 5427 5440 5450 5461 5475 5485 5497 5508 5519 5527 5535 5545 5555 5563 5572 5581 5590 5599 5605 5611 5617 5624 5630 5633 5638 5643 5648 5654 5659 5662 5665 5667 5669 5671
5301 5312 5327 5342 5358 5369 5381 5396 5407 5416 5425 5436 5449 5462 5473 5485 5496 5506 5515 5522 5531 5542 5552 5561 5571 5578 5587 5593 5598 5606 5612 5618 5623 5629 5634 5640 5644 5648 5652 5656 5659 5661 5662
5291 5300 5311 5328 5344 5356 5371 5382 5391 5403 5413 5424 5437 5448 5460 5472 5483 5492 5502 5511 5521 5532 5541 5551 5560 5567 5573 5583 5590 5595 5601 5608 5614 5619 5625 5630 5634 5638 5643 5647 5650 5652 5654
5277 5287 5299 5314 5329 5343 5358 5370 5383 5395 5405 5414 5424 5437 5448 5460 5470 5480 5490 5501 5510 5521 5531 5540 5547 5554 5562 5571 5578 5584 5589 5596 5603 5609 5614 5619 5623 5629 5634 5638 5641 5644 5645
5266 5277 5288 5302 5318 5333 5346 5358 5370 5381 5391 5402 5412 5423 5435 5446 5456 5468 5479 5491 5499 5510 5521 5528 5536 5543 5551 5558 5565 5573 5580 5587 5593 5598 5604 5609 5615 5621 5625 5629 5632 5635 5638
5254 5265 5278 5290 5304 5318 5331 5344 5356 5369 5381 5391 5401 5409 5422 5434 5447 5457 5467 5478 5490 5499 5508 5517 5526 5534 5542 5549 5556 5563 5570 5577 5583 5590 5595 5601 5607 5611 5615 5620 5624 5627 5628
5242 5252 5264 5278 5291 5303 5316 5330 5342 5357 5369 5380 5390 5399 5410 5422 5434 5445 5456 5466 5475 5486 5496 5505 5514 5523 5531 5540 5547 5555 5562 5569 5575 5581 5586 5590 5597 5602 5606 5611 5614 5617 5620
5229 5240 5252 5264 5276 5290 5302 5316 5329 5344 5356 5368 5380 5390 5401 5411 5423 5433 5444 5454 5465 5475 5485 5494 5503 5512 5520 5529 5538 5546 5553 5559 5565 5571 5576 5581 5587 5592 5597 5600 5604 5608 5609
5217 5228 5239 5252 5264 5276 5290 5304 5316 5330 5342 5356 5368 5379 5390 5400 5411 5422 5432 5443 5453 5464 5474 5483 5494 5502 5510 5519 5527 5534 5542 5548 5554 5561 5567 5571 5576 5582 5586 5590 5594 5596 5598
5205 5217 5228 5240 5251 5264 5278 5291 5304 5317 5330 5344 5355 5367 5378 5388 5399 5409 5420 5431 5441 5453 5462 5473 5482 5491 5499 5507 5515 5522 5529 5536 5543 5550 5555 5560 5566 5570 5575 5579 5583 5585 5586